SHERINGHAM POINT (A current weather conditions

sailwx.info

Wind from 270 at 2 knots

Air temperature 11.0° C

Last reported at 2019-Aug-20 13:00 UTC.
Time now 2019-Aug-20 13:43 UTC

Location: N 48°23' W 123°55'.
View on Google Maps.

See reports from other nearby stations

  
Tides and Currents Weather Stations Pressure Air Temp Water Temp Dewpoint Dewpoint Depression Visibility Wind Speed Wind Dir Waves Ship Positions
date/time (UTC)wind fromknots sea level pressurealtimeterstation pressurevisibilityair tempwater tempwave heightnotes
2019-Aug-20 13:00 270 2 11.0
2019-Aug-20 12:00 040 2 11.0
2019-Aug-20 11:00 080 1 13.0
2019-Aug-20 10:00 340 2 13.0
2019-Aug-20 09:00 12.0
2019-Aug-20 08:00 100 2 11.0
2019-Aug-20 07:00 290 2 12.0
2019-Aug-20 06:00 060 1 12.0
2019-Aug-20 05:00 120 2 13.0
2019-Aug-20 04:00 060 1 15.0
2019-Aug-20 03:00 300 9 gusting 16 16.0
2019-Aug-20 02:00 300 11 16.0
2019-Aug-20 01:00 300 14 17.0
2019-Aug-20 00:00 290 16 16.0
2019-Aug-19 23:00 290 16 17.0
2019-Aug-19 22:00 290 13 16.0
2019-Aug-19 21:00 290 13 15.0
2019-Aug-19 20:00 280 13 14.0
2019-Aug-19 19:00 280 7 14.0
2019-Aug-19 18:00 290 8 14.0
2019-Aug-19 17:00 290 7 14.0
2019-Aug-19 16:00 300 4 14.0
2019-Aug-19 15:00 290 4 15.0
2019-Aug-19 14:00 300 4 15.0
2019-Aug-19 13:00 300 6 15.0
2019-Aug-19 12:00 290 10 14.0
2019-Aug-19 11:00 290 11 14.0
2019-Aug-19 10:00 290 14 14.0
2019-Aug-19 09:00 290 15 15.0
2019-Aug-19 08:00 290 12 14.0
2019-Aug-19 07:00 290 11 14.0
2019-Aug-19 06:00 290 12 13.0
2019-Aug-19 05:00 300 13 14.0
2019-Aug-19 04:00 290 14 13.0
2019-Aug-19 03:00 290 16 14.0
2019-Aug-19 02:00 290 18 15.0
2019-Aug-19 01:00 290 19 14.0
2019-Aug-19 00:00 290 20 14.0
2019-Aug-18 23:00 280 22 13.0
2019-Aug-18 22:00 290 22 14.0
2019-Aug-18 21:00 290 20 15.0
2019-Aug-18 20:00 290 14 14.0
2019-Aug-18 19:00 290 15 15.0
2019-Aug-18 18:00 290 11 13.0
2019-Aug-18 17:00 290 8 13.0
2019-Aug-18 16:00 290 8 12.0
2019-Aug-18 15:00 290 10 13.0
2019-Aug-18 14:00 290 9 13.0
2019-Aug-18 13:00 290 8 13.0